Regional Weather Roundup
Issued by NWS Goodland, KS

Home | Current Version | Previous Version | Graphics & Text | Print | Product List | Glossary On
Versions: 1 2 3 4 5 6 7 8 9 10 11 12 13 14 15 16 17 18 19 20 21 22 23 24 25 26 27 28 29 30 31 32 33 34 35 36 37 38 39 40 41 42 43 44 45 46 47 48 49 50
000
ASUS43 KGLD 031008
RWRGLD

GOODLAND FORECAST AREA HOURLY WEATHER ROUNDUP
NATIONAL WEATHER SERVICE GOODLAND KS
400 AM MDT THU SEP 03 2015

...OFFICIAL OBSERVATIONS...

CITY           SKY/WX    TMP DP  RH WIND       PRES   REMARKS
GOODLAND KS    CLEAR     66  56  70 SW8       29.87F
HILL CITY KS   PTCLDY    76  59  55 S9        29.83F
IMPERIAL NEB   PTCLDY    65  56  72 NW5       29.85S
MCCOOK NEB     PTCLDY    65  57  75 CALM      29.80F
AKRON CO       CLEAR     64  40  41 W10       29.95F
BURLINGTON CO  CLEAR     62  53  72 SW8       29.92S
LIMON CO       CLEAR     53  45  74 NW6       30.02S
$$

...UNOFFICIAL OBSERVATIONS...

CITY           SKY/WX    TMP DP  RH WIND       PRES   REMARKS
COLBY KS       CLEAR     66  57  72 SW7       29.86S
GOVE KS          N/A     75  32  20 MISG        N/A
LENORA KS        N/A     72  32  23 MISG        N/A
NORTON KS      CLEAR     73  55  53 SE6       29.82S
$$


USA.gov is the U.S. government's official web portal to all federal, state and local government web resources and services.